24h Messdaten per 15.08.2020 um 14:37:02

Datum Zeit Luftdruck Temp Balkon Feuchte Balkon Temp Strasse Feuchte Strasse Wind km/h Wind Boe Wind aus (Grad) Regen l/15min Licht Lux Sonne h/Monat
15.08.20 14:37:02 1012 23.5 38
15.08.20 14:32:02 1012 23.9 36
15.08.20 14:27:01 1012 23.9 36
15.08.20 14:22:01 1012 23.8 36
15.08.20 14:17:01 1012 23.6 36
15.08.20 14:12:01 1012 23.9 33
15.08.20 14:07:02 1012 25.3 30
15.08.20 14:02:02 1012 25.5 30
15.08.20 13:57:01 1012 25.7 28
15.08.20 13:52:01 1012 26.1 28
15.08.20 13:47:01 1012 26.0 27
15.08.20 13:42:01 1012 25.8 27 0.0
15.08.20 13:37:02 1012 26.1 26 0.0
15.08.20 13:32:01 1012 26.4 25 0.0
15.08.20 13:27:01 1012 26.8 25 0.0
15.08.20 13:22:01 1012 26.8 25 0.0
15.08.20 13:17:01 1013 27.4 21 0.0
15.08.20 13:12:01 1013 27.8 20 0.0
15.08.20 13:07:01 1012 28.5 20 0.0
15.08.20 13:02:01 1012 33.4 20 0.0
15.08.20 12:57:01 1012 33.1 20 0.0
15.08.20 12:52:01 1013 33.6 20 0.0
15.08.20 12:47:01 31.8 20 0.0
15.08.20 12:42:01 1013 28.6 20 1.1 4.0 112.5 0.0
15.08.20 12:37:02 1013 28.2 20 0.4 2.9 135 0.0
15.08.20 12:32:02 1013 28.5 21 0.4 0.0 22.5 0.0
15.08.20 12:27:02 1013 27.9 20 0.4 0.0 67.5 0.0
15.08.20 12:22:01 1013 30.1 20 0.4 0.0 180 0.0
15.08.20 12:17:01 1013 30.1 20 0.7 0.0 0 0.0
15.08.20 12:12:01 1013 29.6 20 0.4 0.0 112.5 0.0
15.08.20 12:07:01 1013 29.5 20 0.0 0.0 45 0.0
15.08.20 12:02:01 1013 29.5 20 0.0 2.5 112.5 0.0
15.08.20 11:57:01 1013 35.3 20 0.0 0.0 67.5 0.0
15.08.20 11:52:01 34.8 20 0.0 1.8 67.5 0.0
15.08.20 11:47:01 1013 35.2 20 0.4 1.4 67.5 0.0
15.08.20 11:42:01 1013 35.8 20 0.0 0.0 90 0.0
15.08.20 11:37:02 33.5 20 0.4 1.8 45 0.0
15.08.20 11:32:02 1013 33.8 20 0.4 0.0 180 0.0
15.08.20 11:27:01 1013 34.0 20 0.0 0.0 180 0.0
15.08.20 11:22:01 1013 0.4 0.0 112.5 0.0
15.08.20 11:17:01 1013 1.4 0.0 315 0.0
15.08.20 11:12:01 1013 1.1 1.8 292.5 0.0
15.08.20 11:07:02 1013 30.4 20 0.4 0.0 67.5 0.0
15.08.20 11:02:02 1013 28.9 22 0.4 0.0 135 0.0
15.08.20 10:57:02 1013 28.5 24 0.4 0.0 315 0.0
15.08.20 10:52:01 1013 28.0 24 0.7 0.0 292.5 0.0
15.08.20 10:47:01 1013 26.7 25 0.7 4.7 247.5 0.0
15.08.20 10:42:01 1013 27.8 23 0.4 1.8 292.5 0.0
15.08.20 10:37:02 1013 28.4 24 0.4 0.0 0 0.0
15.08.20 10:32:02 1013 0.7 1.4 270 0.0
15.08.20 10:27:02 1013 29.0 23 0.0 1.8 315 0.0
15.08.20 10:22:02 1013 28.7 23 0.0 0.0 315 0.0
15.08.20 10:17:02 1013 31.4 20 0.0 0.0 315 0.0
15.08.20 10:12:02 1013 31.1 20 0.4 0.0 270 0.0
15.08.20 10:07:01 1013 0.4 0.0 270 0.0
15.08.20 10:02:01 1013 30.0 24 0.4 2.5 45 0.0
15.08.20 09:57:01 1013 28.5 26 0.7 0.0 337.5 0.0
15.08.20 09:52:02 1013 26.7 30 0.4 0.0 292.5 0.0
15.08.20 09:47:02 1013 24.0 32 0.4 0.0 247.5 0.0
15.08.20 09:42:02 1013 25.4 33 0.7 0.0 270 0.0
15.08.20 09:37:01 1013 24.1 36 0.4 2.9 22.5 0.0
15.08.20 09:32:01 1013 22.9 37 0.4 2.5 247.5 0.0
15.08.20 09:27:01 1013 22.4 38 0.0 0.0 67.5 0.0
15.08.20 09:22:01 1013 22.4 39 0.0 0.0 112.5 0.0
15.08.20 09:17:01 1013 22.1 38 0.0 0.0 135 0.0
15.08.20 09:12:01 1013 21.9 39 0.0 0.0 45 0.0
15.08.20 09:07:02 1013 21.5 40 0.0 0.0 45 0.0
15.08.20 09:02:02 1013 21.5 40 0.0 0.0 247.5 0.0
15.08.20 08:57:02 1013 21.0 40 0.0 0.0 67.5 0.0
15.08.20 08:52:02 1013 21.2 43 0.4 0.0 0 0.0
15.08.20 08:47:02 1013 21.0 45 0.4 2.2 22.5 0.0
15.08.20 08:42:02 1013 20.1 45 0.4 0.0 247.5 0.0
15.08.20 08:37:02 1013 20.2 45 0.0 2.2 270 0.0
15.08.20 08:32:02 1013 19.9 46 0.4 0.0 112.5 0.0
15.08.20 08:27:02 1013 19.8 47 0.7 1.8 67.5 0.0
15.08.20 08:22:02 1013 19.5 47 0.7 0.0 90 0.0
15.08.20 08:17:02 1013 19.6 49 0.7 2.5 270 0.0
15.08.20 08:12:02 1013 19.4 49 0.4 0.0 45 0.0
15.08.20 08:07:02 1013 19.0 50 0.4 0.0 90 0.0
15.08.20 08:02:02 1013 19.2 52 0.0 0.0 135 0.0
15.08.20 07:57:02 1012 19.0 53 0.4 0.0 90 0.0
15.08.20 07:52:02 1013 18.8 54 0.4 0.0 270 0.0
15.08.20 07:47:02 1013 18.5 54 0.0 0.0 135 0.0
15.08.20 07:42:02 1013 18.5 55 0.0 0.0 315 0.0
15.08.20 07:37:02 1012 18.3 56 0.4 0.0 45 0.0
15.08.20 07:32:02 1012 18.1 58 0.4 0.0 90 0.0
15.08.20 07:27:02 1012 0.4 0.0 90 0.0
15.08.20 07:22:01 1012 17.8 60 0.4 4.0 112.5 0.0
15.08.20 07:17:01 1012 17.6 62 0.4 0.0 67.5 0.0
15.08.20 07:12:01 1012 17.5 63 0.4 0.0 315 0.0
15.08.20 07:07:02 1012 17.4 63 0.4 0.0 22.5 0.0
15.08.20 07:02:02 1012 17.3 64 0.4 0.0 112.5 0.0
15.08.20 06:57:02 1012 17.3 64 0.4 2.5 112.5 0.0
15.08.20 06:52:04 1012 17.1 65 1.1 0.0 157.5 0.0
15.08.20 06:47:04 1012 17.2 65 1.4 2.2 135 0.0
15.08.20 06:42:04 1012 17.0 66 1.4 2.2 90 0.0
15.08.20 06:37:03 1012 16.9 66 1.4 2.5 135 0.0
15.08.20 06:32:03 1012 16.9 67 1.4 2.2 112.5 0.0
15.08.20 06:27:03 1012 16.8 67 1.4 3.6 112.5 0.0
15.08.20 06:22:02 1012 1.1 1.4 180 0.0
15.08.20 06:17:02 1012 16.8 68 1.1 1.4 112.5 0.0
15.08.20 06:12:02 1012 16.7 68 1.1 2.5 112.5 0.0
15.08.20 06:07:02 1012 16.7 68 0.4 0.0 112.5 0.0
15.08.20 06:02:02 1012 16.5 68 0.4 0.0 45 0.0
15.08.20 05:57:02 1012 16.3 68 1.1 0.0 90 0.0
15.08.20 05:52:02 1012 16.4 68 1.1 0.0 157.5 0.0
15.08.20 05:47:02 1012 16.5 67 0.7 0.0 112.5 0.0
15.08.20 05:42:02 1012 16.6 67 1.1 0.0 112.5 0.0
15.08.20 05:37:02 1012 16.7 67 0.7 0.0 67.5 0.0
15.08.20 05:32:02 1012 16.9 67 1.1 2.9 112.5 0.0
15.08.20 05:27:02 1012 16.8 66 0.4 1.8 67.5 0.0
15.08.20 05:22:02 1012 17.0 66 0.4 0.0 157.5 0.0
15.08.20 05:17:02 1012 0.4 0.0 112.5 0.0
15.08.20 05:12:02 1012 17.2 66 0.4 1.8 112.5 0.0
15.08.20 05:07:02 1012 17.1 66 0.7 0.0 135 0.0
15.08.20 05:02:02 1012 17.1 66 0.7 0.0 135 0.0
15.08.20 04:57:02 1012 17.0 66 0.7 0.0 112.5 0.0
15.08.20 04:52:02 1012 17.1 66 0.7 0.0 67.5 0.0
15.08.20 04:47:02 1012 17.2 67 1.4 0.0 112.5 0.0
15.08.20 04:42:02 1012 17.1 67 1.8 2.2 90 0.0
15.08.20 04:37:02 1012 17.2 67 2.2 2.9 112.5 0.0
15.08.20 04:32:02 1012 17.1 67 2.2 2.2 90 0.0
15.08.20 04:27:02 1012 17.1 66 1.8 2.5 112.5 0.0
15.08.20 04:22:02 1012 17.1 66 1.8 2.9 112.5 0.0
15.08.20 04:17:02 1012 17.3 66 1.4 4.3 90 0.0
15.08.20 04:12:02 1012 17.3 66 1.1 2.5 225 0.0
15.08.20 04:07:02 1012 17.3 66 1.1 1.8 22.5 0.0
15.08.20 04:02:02 1012 17.4 65 1.1 1.8 112.5 0.0
15.08.20 03:57:02 1012 17.5 65 1.1 3.2 112.5 0.0
15.08.20 03:52:02 1012 1.1 1.4 67.5 0.0
15.08.20 03:47:01 1012 17.6 65 1.4 0.0 112.5 0.0
15.08.20 03:42:01 1012 17.7 65 1.4 2.2 112.5 0.0
15.08.20 03:37:01 1012 17.7 66 1.4 0.0 112.5 0.0
15.08.20 03:32:01 1012 17.6 65 1.1 1.8 90 0.0
15.08.20 03:27:01 1012 17.6 65 0.7 1.4 67.5 0.0
15.08.20 03:22:02 1012 17.7 65 1.1 0.0 112.5 0.0
15.08.20 03:17:02 1012 17.7 64 2.5 2.5 112.5 0.0
15.08.20 03:12:02 1012 17.8 64 2.5 2.9 112.5 0.0
15.08.20 03:07:02 1012 17.9 63 1.8 2.2 112.5 0.0
15.08.20 03:02:02 1.4 3.2 112.5 0.0
15.08.20 02:57:02 1012 18.0 64 1.4 1.8 90 0.0
15.08.20 02:52:02 1012 18.0 64 1.8 1.4 112.5 0.0
15.08.20 02:47:02 1012 17.7 61 1.8 2.9 112.5 0.0
15.08.20 02:42:02 1012 17.8 61 1.4 2.5 135 0.0
15.08.20 02:37:02 1012 18.2 62 0.7 1.4 157.5 0.0
15.08.20 02:32:02 1012 18.2 62 0.7 2.5 112.5 0.0
15.08.20 02:27:02 1012 18.3 62 0.7 2.5 135 0.0
15.08.20 02:22:02 1012 18.0 59 1.1 2.2 112.5 0.0
15.08.20 02:17:02 1012 18.4 60 1.1 0.0 112.5 0.0
15.08.20 02:12:02 1012 18.4 60 0.7 2.2 135 0.0
15.08.20 02:07:02 1012 18.5 59 1.1 0.0 135 0.0
15.08.20 02:02:02 1012 18.4 59 1.1 0.0 67.5 0.0
15.08.20 01:57:02 1012 18.5 58 1.4 1.4 112.5 0.0
15.08.20 01:52:02 1012 18.3 57 1.8 0.0 67.5 0.0
15.08.20 01:47:02 1012 18.6 56 1.1 2.9 67.5 0.0
15.08.20 01:42:02 18.8 55 1.1 2.9 112.5 0.0
15.08.20 01:37:02 1012 18.8 55 0.7 1.4 112.5 0.0
15.08.20 01:32:02 1012 19.1 53 0.7 1.4 112.5 0.0
15.08.20 01:27:02 1012 19.2 52 1.1 0.0 112.5 0.0
15.08.20 01:22:02 1012 19.4 53 1.1 0.0 135 0.0
15.08.20 01:17:02 1012 19.2 51 0.7 2.5 112.5 0.0
15.08.20 01:12:02 1012 19.5 49 0.7 0.0 67.5 0.0
15.08.20 01:07:02 1012 19.8 48 1.1 2.2 135 0.0
15.08.20 01:02:02 1012 19.8 48 1.1 2.2 135 0.0
15.08.20 00:57:02 19.7 49 0.0 0.0 67.5 0.0
15.08.20 00:51:02 1012 19.5 49 0.0 0.0 202.5 0.0
15.08.20 00:46:02 1012 19.5 50 0.0 0.0 45 0.0
15.08.20 00:41:02 1012 19.3 51 0.0 0.0 112.5 0.0
15.08.20 00:36:02 1012 19.3 51 0.0 0.0 112.5 0.0
15.08.20 00:31:02 1012 19.5 50 0.0 0.0 135 0.0
15.08.20 00:26:02 1012 19.6 49 1.1 0.0 22.5 0.0
15.08.20 00:21:02 1012 19.8 48 1.1 1.4 157.5 0.0
15.08.20 00:16:02 1012 20.0 47 1.1 2.9 112.5 0.0
15.08.20 00:11:02 1012 20.1 46 0.7 0.0 112.5 0.0
15.08.20 00:06:02 1012 20.1 45 0.0 0.0 112.5 0.0
15.08.20 00:01:02 1012 20.1 45 0.4 0.0 67.5 0.0
14.08.20 23:56:02 1012 20.1 46 0.7 0.0 45 0.0
14.08.20 23:51:02 1012 20.1 46 0.7 1.4 135 0.0
14.08.20 23:46:02 1012 20.2 45 0.4 2.2 90 0.0
14.08.20 23:41:02 1012 20.4 44 0.4 0.0 112.5 0.0
14.08.20 23:36:01 1012 20.6 43 0.4 1.4 112.5 0.0
14.08.20 23:31:01 1012 20.9 41 0.4 0.0 90 0.0
14.08.20 23:26:01 1012 20.9 41 0.4 0.0 135 0.0
14.08.20 23:21:02 1012 21.0 41 0.7 1.4 135 0.0
14.08.20 23:16:02 1012 21.0 40 0.7 2.2 112.5 0.0
14.08.20 23:11:02 1012 21.2 39 0.4 0.0 112.5 0.0
14.08.20 23:06:02 1012 21.3 39 0.7 0.0 112.5 0.0
14.08.20 23:01:02 1012 21.0 39 1.1 0.0 90 0.0
14.08.20 22:56:02 1012 21.3 39 1.4 1.8 112.5 0.0
14.08.20 22:51:02 1012 21.6 37 1.4 2.2 112.5 0.0
14.08.20 22:46:02 1012 21.6 37 0.4 0.0 90 0.0
14.08.20 22:41:02 1012 21.6 36 0.0 2.9 112.5 0.0
14.08.20 22:36:01 1012 21.4 37 0.0 0.0 67.5 0.0
14.08.20 22:31:01 1012 21.3 37 0.0 0.0 90 0.0
14.08.20 22:26:01 1012 21.4 36 0.0 0.0 112.5 0.0
14.08.20 22:21:02 1012 21.4 36 0.0 0.0 112.5 0.0
14.08.20 22:16:02 1012 21.3 37 0.0 0.0 90 0.0
14.08.20 22:11:02 1011 20.9 39 0.0 1.4 270 0.0
14.08.20 22:06:02 1011 20.4 38 0.4 0.0 112.5 0.0
14.08.20 22:01:02 1011 20.7 37 0.7 0.0 45 0.0
14.08.20 21:56:02 1011 20.8 37 1.4 1.8 135 0.0
14.08.20 21:51:02 1011 20.9 37 0.7 4.0 135 0.0
14.08.20 21:46:02 1011 20.8 37 0.0 0.0 112.5 0.0
14.08.20 21:41:02 1011 21.0 36 0.0 0.0 112.5 0.0
14.08.20 21:36:02 1011 21.1 36 0.0 0.0 90 0.0
14.08.20 21:31:02 1011 21.2 35 0.0 0.0 45 0.0
14.08.20 21:26:02 1011 21.4 34 0.0 0.0 112.5 0.0
14.08.20 21:21:02 1011 21.9 32 0.0 0.0 112.5 0.0
14.08.20 21:16:02 1011 22.3 32 0.0 0.0 67.5 0.0
14.08.20 21:11:02 1011 22.3 32 0.0 0.0 247.5 0.0
14.08.20 21:06:02 1011 22.7 31 0.0 2.2 67.5 0.0
14.08.20 21:01:02 1011 23.3 28 0.0 0.0 157.5 0.0
14.08.20 20:56:02 1011 23.7 26 0.0 0.0 90 0.0
14.08.20 20:51:02 1010 24.2 24 0.0 1.8 112.5 0.0
14.08.20 20:46:02 1010 24.0 24 0.4 1.8 247.5 0.0
14.08.20 20:41:02 1010 24.1 24 0.4 0.0 67.5 0.0
14.08.20 20:36:02 1010 24.1 25 0.0 0.0 112.5 0.0
14.08.20 20:31:01 1010 24.0 24 0.4 0.0 67.5 0.0
14.08.20 20:26:01 1010 23.7 26 0.4 0.0 135 0.0
14.08.20 20:21:02 1010 23.6 26 0.4 0.0 67.5 0.0
14.08.20 20:16:02 1010 23.9 26 0.0 0.0 112.5 0.0
14.08.20 20:11:02 1010 24.2 25 0.0 0.0 90 0.0
14.08.20 20:06:02 1010 24.4 24 0.0 0.0 112.5 0.0
14.08.20 20:01:02 1010 24.5 23 0.0 0.0 22.5 0.0
14.08.20 19:56:02 1010 24.8 23 0.0 0.0 90 0.0
14.08.20 19:51:02 1010 25.0 22 0.0 0.0 112.5 0.0
14.08.20 19:46:02 1010 25.1 22 0.0 0.0 112.5 0.0
14.08.20 19:41:02 1010 25.7 20 0.0 0.0 67.5 0.0
14.08.20 19:36:02 1010 0.0 0.0 112.5 0.0
14.08.20 19:31:02 1010 0.0 0.0 135 0.0
14.08.20 19:26:01 1010 0.0 0.0 135 0.0
14.08.20 19:21:02 1010 0.0 0.0 112.5 0.0
14.08.20 19:16:02 1010 0.0 0.0 90 0.0
14.08.20 19:11:02 1010 0.0 0.0 90 0.0
14.08.20 19:06:02 1010 32.6 20 0.0 0.0 112.5 0.0
14.08.20 19:01:02 1010 30.6 20 0.0 0.0 112.5 0.0
14.08.20 18:56:02 1010 32.3 20 0.0 0.0 135 0.0
14.08.20 18:51:02 1010 31.6 20 0.0 1.4 112.5 0.0
14.08.20 18:46:02 1010 30.2 20 0.0 0.0 45 0.0
14.08.20 18:41:02 1010 29.1 20 0.0 0.0 67.5 0.0
14.08.20 18:36:02 1010 32.1 20 0.0 0.0 315 0.0
14.08.20 18:31:02 1010 30.8 20 0.0 0.0 112.5 0.0
14.08.20 18:26:02 1010 31.2 20 0.0 0.0 0 0.0
14.08.20 18:21:02 1010 28.1 20 0.0 0.0 0 0.0
14.08.20 18:16:02 1010 28.8 20 0.0 0.0 45 0.0
14.08.20 18:11:02 1010 28.8 20 0.0 0.0 67.5 0.0
14.08.20 18:06:02 1010 30.1 20 0.7 0.0 45 0.0
14.08.20 18:01:02 1010 31.1 20 0.7 4.0 90 0.0
14.08.20 17:56:02 1010 31.3 20 0.7 2.9 67.5 0.0
14.08.20 17:51:02 1010 33.7 20 0.7 0.0 67.5 0.0
14.08.20 17:46:02 1010 30.0 20 0.7 2.2 135 0.0
14.08.20 17:41:02 1010 28.4 20 0.4 0.0 315 0.0
14.08.20 17:36:02 1010 27.5 20 0.7 2.2 135 0.0
14.08.20 17:31:01 1010 28.3 20 0.7 0.0 112.5 0.0
14.08.20 17:26:01 1010 29.1 20 1.8 1.8 67.5 0.0
14.08.20 17:21:02 1010 30.5 20 2.2 2.5 45 0.0
14.08.20 17:16:02 1010 30.8 20 1.8 2.9 90 0.0
14.08.20 17:11:02 1010 29.1 20 1.8 4.0 90 0.0
14.08.20 17:06:02 1010 31.3 20 1.8 0.0 90 0.0
14.08.20 17:01:02 1010 33.0 20 1.4 4.3 112.5 0.0
14.08.20 16:56:02 1010 31.2 20 0.7 2.2 22.5 0.0
14.08.20 16:51:02 1010 32.9 20 1.1 0.0 45 0.0
14.08.20 16:46:02 1010 32.9 20 2.2 0.0 22.5
14.08.20 16:41:02 1010 30.6 20 1.8 4.7 45 0.0
14.08.20 16:36:02 1010 30.2 20 0.4 1.8 22.5 0.0
14.08.20 16:31:02 1010 31.2 20 0.4 0.0 45 0.0
14.08.20 16:26:01 1010 31.0 20 0.4 0.0 337.5 0.0
14.08.20 16:21:01 1010 34.4 20 0.7 0.0 90 0.0
14.08.20 16:16:01 1010 32.1 20 1.4 0.0 135 0.0
14.08.20 16:11:01 1010 31.9 20 2.5 2.5 90 0.0
14.08.20 16:06:01 1010 32.7 20 2.9 3.2 22.5 0.0
14.08.20 16:01:01 1010 31.7 20 2.2 2.5 67.5 0.0
14.08.20 15:56:01 1010 30.1 20 1.4 1.4 67.5 0.0
14.08.20 15:51:02 1010 31.2 20 1.8 0.0 22.5 0.0
14.08.20 15:46:02 1010 33.4 20 1.8 0.0 22.5 0.0
14.08.20 15:41:02 1010 29.6 20 0.7 0.0 45 0.0
14.08.20 15:36:02 1010 29.1 20 0.4 0.0 180 0.0
14.08.20 15:31:02 1010 34.0 20 0.7 0.0 45 0.0
14.08.20 15:26:02 1010 30.7 20 1.4 0.0 45 0.0
14.08.20 15:21:02 1010 29.6 20 1.4 3.6 135 0.0
14.08.20 15:16:02 1010 31.4 20 1.8 1.4 22.5 0.0
14.08.20 15:11:02 1010 32.4 20 1.4 2.2 112.5 0.0
14.08.20 15:06:02 1011 32.2 20 0.7 0.0 270 0.0
14.08.20 15:01:02 1011 33.5 20 1.1 2.2 135 0.0
14.08.20 14:56:02 1010 30.0 20 1.8 2.5 180 0.0
14.08.20 14:51:02 1010 29.9 20 2.5 2.5 112.5 0.0
14.08.20 14:46:02 1010 30.1 20 3.2 2.2 112.5 0.0
14.08.20 14:41:02 1011 30.9 20 3.6 6.1 135 0.0
Index
© 2002-2012 Thomas Dreßler
Alle Rechte vorbehalten
letzte Scriptänderung 12.11.2012